Regional Weather Roundup
Issued by NWS

Home | Current Version | Previous Version | Graphics & Text | Print | Product List | Glossary On
Versions: 1 2 3 4 5 6 7 8 9 10 11 12 13 14 15 16 17 18 19 20 21 22 23 24 25 26 27 28 29 30 31 32 33 34 35 36 37 38 39 40 41 42 43 44 45 46 47 48 49 50
212
ASUS43 KDMX 251206
RWRIA

WEATHER ROUNDUP FOR IOWA
NATIONAL WEATHER SERVICE DES MOINES IA
700 AM CDT WED APR 25 2018

NOTE: "FAIR" INDICATES FEW OR NO CLOUDS BELOW 12,000 FEET WITH NO
SIGNIFICANT WEATHER AND/OR OBSTRUCTIONS TO VISIBILITY.

* - THESE STATIONS ARE NOT NWS STATIONS...THUS NOT UNDER NWS
QUALITY CONTROL.  THEY ALSO DO NOT REPORT WEATHER SUCH
AS PRECIPITATION OR FOG.

IAZ001>003-012>014-020>022-031>034-043>046-251300-
   NORTHWEST IOWA

CITY           SKY/WX    TMP DP  RH WIND       PRES   REMARKS
CARROLL *      CLOUDY    41  36  81 N12       30.21R
CHEROKEE *     PTCLDY    36  32  86 N8        30.26R WCI  29
DENISON *      CLOUDY    41  36  81 N13       30.23R
LE MARS *      CLOUDY    34  32  93 N6        30.27R WCI  29
ORANGE CITY *  PTCLDY    36  32  87 N8        30.26R WCI  29
SHELDON *      CLEAR     30  30 100 NW3       30.25R
SIOUX CITY     CLOUDY    38  31  76 N9        30.27R WCI  31
6HR MIN TEMP:  38; 6HR MAX TEMP:  45; 6HR PCP: TRACE;

SPENCER        CLEAR     35  29  78 N9        30.25R WCI  28
6HR MIN TEMP:  32; 6HR MAX TEMP:  43;

STORM LAKE *   CLOUDY    37  32  81 N12       30.23R WCI  30
$$

IAZ055>058-069>071-079>083-090>094-251300-
   SOUTHWEST IOWA

CITY           SKY/WX    TMP DP  RH WIND       PRES   REMARKS
ATLANTIC *     CLOUDY    45  41  87 N9        30.20R
AUDUBON *      CLOUDY    43  37  81 N9        30.21R
CRESTON *      CLOUDY    46  43  87 N10       30.17R
HARLAN  *      MIX PCPN  43  41  93 N8G15     30.24R
LAMONI         CLOUDY    49  39  68 N9        30.14R
6HR MIN TEMP:  49; 6HR MAX TEMP:  54; 6HR PCP: TRACE;

RED OAK *      CLOUDY    46  43  87 N12       30.20R
SHENANDOAH *   CLOUDY    46  45  93 N9        30.21R
$$

IAZ047>049-059>061-072>074-084-251300-
   CENTRAL IOWA

CITY           SKY/WX    TMP DP  RH WIND       PRES   REMARKS
AMES           CLOUDY    43  36  76 N9        30.19R
6HR MIN TEMP:  43; 6HR MAX TEMP:  51;

ANKENY *       CLOUDY    45  37  76 N10       30.19R
BOONE *        CLOUDY    41  37  87 N8        30.19R
CHARITON *     CLOUDY    46  37  71 N10       30.14S
DES MOINES     CLOUDY    48  36  63 N12       30.17R
6HR MIN TEMP:  48; 6HR MAX TEMP:  54;

GRINNELL*      CLOUDY    44  35  70 N8        30.17R
KNOXVILLE *    CLOUDY    48  34  57 N9        30.14S
MARSHALLTOWN   CLOUDY    41  36  82 N9        30.17R
6HR MIN TEMP:  39; 6HR MAX TEMP:  49;

NEWTON *       CLOUDY    45  36  70 N10       30.17R
PELLA *        CLOUDY    45  36  70 N7        30.17R
PERRY *        FAIR      43  34  71 N9        30.20R
$$

IAZ004>006-015-016-023>025-035-036-251300-
   NORTH CENTRAL IOWA

CITY           SKY/WX    TMP DP  RH WIND       PRES   REMARKS
ALGONA *       CLEAR     34  32  93 N6        30.23R WCI  29
CLARION *      CLOUDY    36  32  87 N7        30.21R WCI  30
ESTHERVILLE    CLEAR     34  29  82 N10       30.24R WCI  26
6HR MIN TEMP:  33; 6HR MAX TEMP:  38;

FORT DODGE *   CLOUDY    38  32  79 N7        30.22R WCI  33
MASON CITY     CLEAR     35  30  82 N8        30.22R WCI  29
6HR MIN TEMP:  32; 6HR MAX TEMP:  41;

FOREST CITY *  FAIR      37  32  81 N10       30.21R WCI  30
WEBSTER CITY * CLOUDY    37  36  93 N9        30.19R WCI  31
IOWA FALLS *   FAIR      38  33  82 NW6       30.20R WCI  33
$$

IAZ007>011-017>019-026>030-037>042-050>054-066-251300-
   NORTHEAST IOWA

CITY           SKY/WX    TMP DP  RH WIND       PRES   REMARKS
CEDAR RAPIDS   FAIR      46  36  68 N14       30.13R
6HR MIN TEMP:  45; 6HR MAX TEMP:  55;

CHARLES CITY * FAIR      36  36 100 N7        30.19R WCI  30
CLINTON *      FAIR      45  34  65 NE10      30.14R
DECORAH *      FAIR      39  32  75 N9        30.16S WCI  33
DUBUQUE        FAIR      43  31  62 NE6       30.14R
6HR MIN TEMP:  42; 6HR MAX TEMP:  53;

MONTICELLO *   FAIR      45  36  70 NE3       30.15R
OELWEIN *      FAIR      39  37  93 N9G15     30.17R WCI  33
WATERLOO       FAIR      38  35  89 N10       30.18R WCI  31
6HR MIN TEMP:  34; 6HR MAX TEMP:  49;

$$

IAZ064-065-067-068-078-251300-
   EAST CENTRAL IOWA

CITY           SKY/WX    TMP DP  RH WIND       PRES   REMARKS
DAVENPORT      MOCLDY    47  32  56 E9        30.15R
6HR MIN TEMP:  46; 6HR MAX TEMP:  57;

IOWA CITY      FAIR      48  35  60 N9        30.15R
6HR MIN TEMP:  48; 6HR MAX TEMP:  59;

MT. PLEASANT * MOCLDY    45  36  70 N7        30.13R
MUSCATINE *    FAIR      50  36  57 NE10      30.14R
QUAD CITIES    FAIR      49  32  52 NE16      30.12R
6HR MIN TEMP:  49; 6HR MAX TEMP:  62;

$$

IAZ062-063-075>077-085>089-095>099-251300-
   SOUTHEAST IOWA

CITY           SKY/WX    TMP DP  RH WIND       PRES   REMARKS
BURLINGTON     CLOUDY    49  38  65 NE13G22   30.11R
6HR MIN TEMP:  49; 6HR MAX TEMP:  61;

FAIRFIELD *    MOCLDY    46  36  66 N13       30.13R
FORT MADISON * CLOUDY    48  37  66 N7        30.11R
KEOKUK *       CLOUDY    50  37  62 N8        30.10R
OSKALOOSA *    FAIR      45  35  66 N10       30.15R
CENTERVILLE *  FAIR      48  37  66 N14       30.14F
OTTUMWA        CLOUDY    46  36  68 N10       30.14R
6HR MIN TEMP:  44; 6HR MAX TEMP:  55;

WASHINGTON *   CLOUDY    48  37  66 N9        30.14R
$$

ABBREVIATIONS USED IN REMARKS
   TC - TEMPERATURES IN CELSIUS
  WCI - WIND CHILL INDEX
   HX - HEAT INDEX
  VSB - VISIBILITY
$$





USA.gov is the U.S. government's official web portal to all federal, state and local government web resources and services.